| time (UTC) | temp F | wind direction | speed MPH | gust MPH | rain 1hr in | rain 24hr in | rain mn in | humidity % | barometer mb |
| 20260503184607 | 51 | 283 | 3.0 | 25.0 | 0.00 | 0.00 | 0.00 | 40 | 1014.2 |
| 20260503182641 | 52 | 294 | 9.0 | 18.0 | 0.00 | 0.00 | 0.00 | 39 | 1014.4 |
| 20260503181646 | 52 | 254 | 9.0 | 16.0 | 0.00 | 0.00 | 0.00 | 42 | 1014.4 |
| 20260503180607 | 51 | 250 | 3.0 | 15.0 | 0.00 | 0.00 | 0.00 | 41 | 1014.6 |
| 20260503175607 | 51 | 305 | 7.0 | 16.0 | 0.00 | 0.00 | 0.00 | 41 | 1014.7 |
| 20260503174614 | 52 | 267 | 9.0 | 24.0 | 0.00 | 0.00 | 0.00 | 41 | 1014.7 |
| 20260503173620 | 50 | 270 | 7.0 | 16.0 | 0.00 | 0.00 | 0.00 | 41 | 1014.8 |
| 20260503172623 | 50 | 240 | 6.0 | 18.0 | 0.00 | 0.00 | 0.00 | 41 | 1014.9 |
| 20260503171612 | 50 | 294 | 11.0 | 22.0 | 0.00 | 0.00 | 0.00 | 39 | 1014.9 |
| 20260503170619 | 50 | 266 | 6.0 | 17.0 | 0.00 | 0.00 | 0.00 | 40 | 1014.9 |
| 20260503081622 | 35 | 247 | 2.0 | 7.0 | 0.00 | 0.00 | 0.00 | 70 | 1015.0 |
| 20260503080621 | 35 | 261 | 2.0 | 6.0 | 0.00 | 0.00 | 0.00 | 70 | 1014.9 |
| 20260503072641 | 35 | 292 | 5.0 | 8.0 | 0.00 | 0.00 | 0.00 | 69 | 1014.6 |
| 20260503071645 | 35 | 292 | 2.0 | 7.0 | 0.00 | 0.00 | 0.00 | 69 | 1014.6 |
| 20260503070626 | 35 | 315 | 2.0 | 4.0 | 0.00 | 0.00 | 0.00 | 69 | 1014.6 |
| 20260503054615 | 37 | 303 | 2.0 | 7.0 | 0.00 | 0.00 | 0.00 | 64 | 1014.8 |
| 20260503053612 | 37 | 226 | 1.0 | 5.0 | 0.00 | 0.00 | 0.00 | 64 | 1014.9 |
| 20260503052614 | 37 | 272 | 1.0 | 5.0 | 0.00 | 0.00 | 0.00 | 64 | 1014.9 |
| 20260503050645 | 38 | 264 | 1.0 | 5.0 | 0.00 | 0.01 | 0.00 | 63 | 1014.9 |
| 20260503045632 | 38 | 258 | 2.0 | 6.0 | 0.00 | 0.01 | 0.00 | 63 | 1014.9 |
| 20260503043610 | 38 | 251 | 4.0 | 12.0 | 0.00 | 0.01 | 0.00 | 62 | 1014.8 |
| 20260503042625 | 38 | 265 | 2.0 | 8.0 | 0.00 | 0.01 | 0.00 | 63 | 1014.8 |
| 20260503040645 | 38 | 193 | 1.0 | 5.0 | 0.00 | 0.01 | 0.00 | 65 | 1014.8 |
| 20260503035636 | 38 | 222 | 1.0 | 5.0 | 0.00 | 0.05 | 0.03 | 65 | 1014.9 |
| 20260503034616 | 39 | 161 | 1.0 | 5.0 | 0.00 | 0.09 | 0.03 | 66 | 1014.9 |
| 20260503033630 | 39 | 173 | 2.0 | 6.0 | 0.00 | 0.13 | 0.03 | 65 | 1015.0 |
| 20260503032627 | 39 | 215 | 1.0 | 6.0 | 0.00 | 0.15 | 0.03 | 65 | 1015.1 |
| 20260503031618 | 39 | 226 | 0.0 | 5.0 | 0.00 | 0.15 | 0.03 | 66 | 1015.1 |
| 20260503030635 | 39 | 250 | 2.0 | 7.0 | 0.00 | 0.15 | 0.03 | 66 | 1015.3 |
| 20260503024638 | 39 | 281 | 1.0 | 7.0 | 0.00 | 0.15 | 0.03 | 68 | 1015.3 |
| 20260503023637 | 39 | 244 | 1.0 | 7.0 | 0.00 | 0.15 | 0.03 | 69 | 1015.3 |
| 20260503022617 | 39 | 240 | 3.0 | 8.0 | 0.00 | 0.15 | 0.03 | 68 | 1015.4 |
| 20260503021608 | 39 | 236 | 2.0 | 8.0 | 0.00 | 0.16 | 0.03 | 69 | 1015.4 |
| 20260503020622 | 39 | 251 | 3.0 | 7.0 | 0.00 | 0.16 | 0.03 | 69 | 1015.2 |
| 20260503015645 | 39 | 232 | 1.0 | 6.0 | 0.00 | 0.16 | 0.03 | 71 | 1015.0 |
| 20260503014637 | 39 | 243 | 2.0 | 5.0 | 0.00 | 0.16 | 0.03 | 72 | 1015.0 |
| 20260503013635 | 39 | 207 | 2.0 | 7.0 | 0.00 | 0.16 | 0.03 | 73 | 1015.0 |
| 20260503012614 | 39 | 244 | 1.0 | 11.0 | 0.00 | 0.16 | 0.03 | 75 | 1015.0 |
| 20260503011621 | 39 | 260 | 3.0 | 7.0 | 0.00 | 0.16 | 0.03 | 76 | 1015.0 |
| 20260503010615 | 39 | 256 | 1.0 | 5.0 | 0.00 | 0.16 | 0.03 | 77 | 1014.9 |
| 20260503005640 | 39 | 246 | 1.0 | 5.0 | 0.00 | 0.16 | 0.03 | 77 | 1014.7 |
| 20260503004642 | 39 | 239 | 2.0 | 7.0 | 0.00 | 0.16 | 0.03 | 75 | 1014.7 |
| 20260503003640 | 39 | 238 | 3.0 | 6.0 | 0.00 | 0.16 | 0.03 | 75 | 1014.4 |
| 20260503002624 | 39 | 242 | 1.0 | 8.0 | 0.00 | 0.16 | 0.03 | 78 | 1014.5 |
| 20260503001616 | 40 | 279 | 4.0 | 10.0 | 0.00 | 0.16 | 0.03 | 77 | 1014.5 |
| 20260502235617 | 41 | 265 | 0.0 | 6.0 | 0.00 | 0.17 | 0.03 | 75 | 1014.3 |
| 20260502234630 | 41 | 248 | 1.0 | 4.0 | 0.00 | 0.17 | 0.03 | 75 | 1014.3 |
| 20260502233633 | 41 | 250 | 1.0 | 6.0 | 0.00 | 0.18 | 0.03 | 75 | 1014.3 |
| 20260502232613 | 41 | 268 | 1.0 | 2.0 | 0.00 | 0.18 | 0.03 | 72 | 1014.2 |
| 20260502231629 | 41 | 268 | 1.0 | 5.0 | 0.00 | 0.18 | 0.03 | 72 | 1014.2 |
| 20260502230601 | 41 | 257 | 2.0 | 6.0 | 0.00 | 0.18 | 0.03 | 72 | 1014.2 |
| 20260502225627 | 42 | 306 | 2.0 | 8.0 | 0.00 | 0.18 | 0.03 | 71 | 1014.1 |
| 20260502224630 | 42 | 325 | 2.0 | 6.0 | 0.00 | 0.18 | 0.03 | 72 | 1014.1 |
| 20260502223639 | 42 | 294 | 2.0 | 7.0 | 0.00 | 0.18 | 0.03 | 72 | 1014.0 |
| 20260502220636 | 42 | 261 | 2.0 | 6.0 | 0.00 | 0.18 | 0.03 | 72 | 1013.9 |
| 20260502215642 | 42 | 286 | 3.0 | 6.0 | 0.00 | 0.18 | 0.03 | 73 | 1013.8 |
| 20260502214609 | 42 | 284 | 2.0 | 6.0 | 0.00 | 0.18 | 0.03 | 74 | 1013.8 |
| 20260502212611 | 41 | 293 | 1.0 | 5.0 | 0.00 | 0.18 | 0.03 | 75 | 1013.8 |
| 20260502211627 | 41 | 304 | 4.0 | 7.0 | 0.00 | 0.18 | 0.03 | 75 | 1013.8 |
| 20260502210647 | 41 | 294 | 4.0 | 10.0 | 0.00 | 0.19 | 0.03 | 76 | 1013.7 |
| 20260502203603 | 41 | 287 | 2.0 | 11.0 | 0.00 | 0.19 | 0.03 | 75 | 1013.8 |
| 20260502202628 | 41 | 312 | 1.0 | 6.0 | 0.00 | 0.20 | 0.03 | 76 | 1013.8 |
| 20260502201637 | 42 | 321 | 4.0 | 13.0 | 0.00 | 0.21 | 0.03 | 75 | 1013.8 |
| 20260502200638 | 42 | 321 | 4.0 | 10.0 | 0.00 | 0.23 | 0.03 | 74 | 1013.9 |
| 20260502195613 | 42 | 335 | 6.0 | 10.0 | 0.00 | 0.23 | 0.03 | 72 | 1014.1 |
| 20260502192645 | 44 | 331 | 7.0 | 12.0 | 0.00 | 0.26 | 0.03 | 64 | 1014.2 |
| 20260502191620 | 44 | 305 | 3.0 | 8.0 | 0.00 | 0.29 | 0.03 | 61 | 1014.2 |
| 20260502190624 | 44 | 243 | 2.0 | 7.0 | 0.00 | 0.29 | 0.03 | 60 | 1014.2 |
| 20260502185634 | 45 | 290 | 1.0 | 7.0 | 0.00 | 0.29 | 0.03 | 60 | 1014.3 |